SCP
1 1 1 1 1 1 1 1 1 1 1 2 2 2 2 2 2 1 1 1 0 0 0 0 0 0 0 0 0 0 0 0 0 0 0 0 0 0 0 0 0 0 0
1 1 1 1 1 1 1 1 1 1 1 2 2 2 2 2 2 1 1 1 1 0 0 0 0 0 0 0 0 0 0 0 0 0 0 0 0 0 0 0 0 0 0
1 1 1 1 1 1 1 1 1 2 2 2 2 2 2 2 2 1 1 1 1 1 1 0 0 0 0 0 0 0 0 0 0 0 0 0 0 0 0 0 0 0 0
1 1 1 1 1 1 2 2 2 2 2 2 2 2 2 2 2 2 2 1 1 1 1 0 0 0 0 0 0 0 0 0 0 0 0 0 0 0 0 0 0 0 0
1 1 1 1 1 2 2 2 2 2 2 2 2 2 2 2 2 2 2 2 1 1 1 1 1 1 1 0 0 0 0 0 1 1 1 0 0 0 0 0 0 0 0
1 1 1 1 1 1 1 2 2 2 2 2 1 1 1 1 2 2 2 2 2 1 1 1 1 1 1 1 1 1 1 1 1 1 1 1 1 0 0 0 0 0 0
0 0 1 1 1 1 1 1 1 1 1 1 1 1 1 1 1 1 1 1 1 1 1 1 1 1 1 1 1 1 1 1 1 1 1 1 1 0 0 0 0 0 0
0 0 0 1 1 1 1 1 1 1 1 1 1 1 1 1 1 1 1 1 1 1 1 1 1 1 1 1 1 1 1 1 1 1 1 1 1 1 0 0 0 0 0
0 0 0 0 1 1 1 1 1 1 1 0 0 0 0 0 0 0 0 0 0 0 0 0 0 0 0 0 0 1 1 1 1 1 1 1 1 1 1 0 0 0 0
0 0 0 0 0 1 1 1 1 0 0 0 0 0 0 0 0 0 0 0 0 0 0 0 0 0 0 0 0 0 0 0 1 1 1 1 1 1 1 1 1 1 1
0 0 0 0 0 0 0 0 0 0 0 0 0 0 0 0 0 0 0 0 0 0 0 0 0 0 0 0 0 0 0 0 0 0 0 1 1 1 1 1 1 1 1
0 0 0 0 0 0 0 0 0 0 0 0 0 0 0 0 0 0 0 0 0 0 0 0 0 0 0 0 0 0 0 0 0 0 0 0 0 1 1 1 1 1 1
0 0 0 0 0 0 0 0 0 0 0 0 0 0 0 0 0 0 0 0 0 0 0 0 0 0 0 0 0 0 0 0 0 0 0 0 0 0 1 1 1 1 1
0 0 0 0 0 0 0 0 0 0 0 0 0 0 0 0 0 0 0 0 0 0 0 0 0 0 0 0 0 0 0 0 0 0 0 0 0 0 0 1 1 1 1
0 0 0 0 0 0 0 0 0 0 0 0 0 0 0 0 0 0 0 0 0 0 0 0 0 0 0 0 0 0 0 0 0 0 0 0 0 0 0 0 0 1 1
0 0 0 0 0 0 0 0 0 0 0 0 0 0 0 0 0 0 0 0 0 0 0 0 0 0 0 0 0 0 0 0 0 0 0 0 0 0 0 0 0 0 0
0 0 0 0 0 0 0 0 0 0 0 0 0 0 0 0 0 0 0 0 0 0 0 0 0 0 0 0 0 0 0 0 0 0 0 0 0 0 0 0 0 0 0
0 0 0 0 0 0 0 0 0 0 0 0 0 0 0 0 0 0 0 0 0 0 0 0 0 0 0 0 -0 0 0 0 0 0 0 0 0 0 0 0 0 0 0
0 0 0 0 0 0 0 0 0 0 0 0 0 0 0 0 0 0 0 0 0 0 0 0 0 0 0 0 0 0 0 0 0 0 0 0 0 0 0 0 0 0 0
0 0 0 0 0 0 0 0 0 0 0 0 0 0 0 0 0 0 0 0 0 0 0 0 0 0 0 0 0 0 0 0 0 0 0 0 0 0 0 0 0 0 0
0 0 0 0 0 0 0 0 0 0 0 0 0 0 0 0 0 0 0 0 0 0 0 0 0 0 0 0 0 0 0 0 0 0 0 0 0 0 0 0 0 0 0
0 0 0 0 0 0 0 0 0 0 0 0 0 0 0 0 0 0 0 0 0 0 0 0 0 0 0 0 0 0 0 0 0 0 0 0 0 0 0 0 0 0 0
0 0 0 0 0 0 0 0 0 0 0 0 0 0 0 0 0 0 0 0 0 0 0 0 0 0 0 0 0 0 0 0 0 0 0 0 0 0 0 0 0 0 0
0 0 0 0 0 0 0 0 0 0 0 0 0 0 0 0 0 0 0 0 0 0 0 0 0 0 0 0 0 0 0 0 0 0 0 0 0 0 0 0 0 0 0
0 0 0 0 0 0 0 0 0 0 0 0 0 0 0 0 0 0 0 0 0 0 0 0 0 0 0 0 0 0 0 0 0 0 0 0 0 0 0 0 0 0 0
0 0 0 0 0 0 0 0 0 0 0 0 0 0 0 0 0 0 0 0 0 0 0 0 0 0 0 0 0 0 0 0 0 0 0 0 0 0 0 0 0 0 0
Wind_Speed
6 7 8 8 9 10 11 12 12 12 10 8 8 7 6 5 4 5 8 10 10 10 8 8 7 8 7 7 7 6 6 6 3 5 5 5 5 3 4 4 4 4 5
6 7 7 7 8 9 10 11 12 12 11 9 7 5 4 3 3 4 7 10 10 10 9 9 8 8 7 8 8 7 7 5 4 5 6 5 3 5 3 2 3 4 4
2 4 6 6 6 7 7 7 8 8 9 9 6 5 4 3 4 6 6 7 8 10 9 10 9 8 8 8 9 8 9 7 6 5 5 5 3 4 3 3 2 3 4
5 4 2 1 2 2 2 2 2 2 2 3 5 7 8 9 10 9 8 6 4 6 8 9 9 8 7 8 9 9 6 7 6 5 5 6 5 5 4 3 4 3 3
7 7 7 6 6 4 3 3 4 4 4 2 2 4 7 8 8 9 9 7 4 2 5 8 7 7 7 8 8 7 7 6 7 5 5 5 5 7 6 6 4 3 2
8 8 8 8 7 7 6 5 5 5 5 4 4 3 5 6 7 9 8 6 3 1 1 5 5 6 6 7 7 7 8 6 7 6 6 6 6 5 5 7 6 5 2
8 8 8 7 6 5 5 4 4 4 4 3 3 3 3 3 3 4 5 5 3 2 1 2 4 4 4 5 5 6 6 6 7 7 6 6 7 6 6 7 7 6 4
9 9 8 7 6 5 4 3 3 3 3 3 2 2 2 2 2 1 1 1 2 2 1 1 3 4 4 5 5 5 6 5 6 7 7 7 7 6 7 7 7 6 6
8 8 8 8 8 7 5 4 4 4 4 4 4 4 4 4 4 3 3 3 3 2 2 1 3 4 5 5 6 5 5 5 6 7 7 7 6 7 7 6 5 5 5
7 7 7 8 7 7 7 6 6 6 6 6 5 5 5 5 5 5 6 5 4 3 2 1 3 4 5 6 6 6 4 5 5 5 7 6 7 6 7 7 6 6 5
6 6 6 6 7 7 7 6 6 6 6 6 6 6 6 6 6 6 6 5 5 4 3 2 2 4 5 5 5 6 5 5 5 5 6 7 7 6 6 6 6 7 6
5 6 6 6 7 7 6 6 6 6 6 5 5 5 5 6 6 7 6 5 5 4 3 2 2 3 4 4 5 5 5 5 5 5 6 6 6 7 7 6 7 7 7
4 5 5 5 5 6 5 5 5 5 5 5 4 5 5 6 6 6 6 5 5 4 4 3 3 3 3 4 4 5 5 5 4 5 5 5 6 7 6 7 7 6 6
2 3 3 3 4 4 4 4 4 4 3 3 3 3 4 4 5 6 5 5 5 5 5 4 4 4 4 4 3 2 2 2 3 4 4 5 6 6 6 5 6 6 6
2 2 2 3 3 3 3 3 3 3 2 1 2 3 3 3 4 5 5 5 4 5 5 5 5 5 5 7 8 3 3 3 4 4 4 5 7 9 9 7 6 4 3
2 1 1 2 3 2 2 1 2 3 3 3 4 3 2 3 3 4 4 4 4 5 5 6 6 7 7 8 10 7 5 4 4 4 4 3 4 4 6 8 11 10 5
3 2 2 3 3 2 1 1 3 4 4 4 4 3 3 3 3 3 3 4 4 4 4 5 6 7 7 6 7 8 5 6 7 6 5 5 5 5 3 3 4 8 9
2 1 2 3 3 2 1 3 5 4 3 3 3 3 3 4 4 4 4 4 3 3 4 5 6 6 6 4 4 5 5 7 7 8 7 7 8 11 11 6 7 8 9
1 2 2 3 3 2 3 5 6 5 4 3 2 3 3 3 2 2 2 2 2 3 3 4 5 6 6 3 3 6 5 6 8 8 9 9 10 13 15 6 6 7 6
1 1 2 3 2 0 2 5 5 5 3 3 2 2 2 1 1 0 1 1 1 2 3 3 4 5 6 4 2 7 3 5 5 5 7 10 10 11 14 8 7 7 6
2 2 1 2 2 2 2 4 4 3 4 4 3 3 2 2 2 1 1 0 1 2 3 4 3 4 6 5 4 6 4 3 3 4 5 6 8 8 9 8 6 5 7
2 2 2 2 3 2 2 3 3 4 4 5 4 3 3 3 3 3 2 2 2 1 2 4 4 3 4 7 5 5 4 5 2 2 3 4 4 5 5 5 5 6 8
2 2 3 4 4 3 3 4 4 4 4 4 3 3 3 4 5 5 4 3 3 3 3 3 4 5 5 4 5 5 4 5 4 3 4 2 2 3 1 2 5 6 4
3 2 3 4 4 4 5 5 5 4 3 3 3 3 3 3 4 4 4 4 5 4 4 3 3 4 4 6 5 4 3 2 3 3 1 3 3 3 2 3 3 2 3
4 3 3 3 5 5 5 6 6 5 4 3 4 4 4 4 3 3 3 3 2 2 2 2 2 3 4 5 6 6 4 4 3 3 4 4 4 3 2 2 2 3 2
5 4 5 5 5 6 6 6 5 4 2 3 4 4 4 4 4 5 5 3 2 2 1 1 4 3 4 5 5 4 4 3 3 3 2 1 3 5 6 6 5 4 4
Wind_Direction
178 198 210 220 220 216 219 221 224 223 226 230 231 233 236 244 259 273 275 271 266 262 255 262 261 255 255 259 259 253 246 245 254 269 266 252 226 243 267 266 290 296 310
177 186 192 205 214 217 221 225 226 230 230 230 233 235 233 235 252 278 286 283 277 269 260 255 262 259 256 255 257 253 270 272 252 277 290 283 217 188 207 241 267 298 302
146 171 188 200 209 214 222 231 236 238 240 238 230 215 204 206 215 233 242 261 280 281 275 268 264 265 260 258 256 251 252 262 259 255 281 294 318 324 188 197 250 283 300
53 48 49 165 210 230 246 262 271 271 267 246 239 234 231 229 224 217 217 218 236 274 280 274 269 264 258 256 256 253 255 256 258 245 251 270 303 294 297 218 181 203 252
52 43 34 36 33 26 39 57 60 57 52 25 325 266 256 251 240 225 219 214 206 243 286 278 269 263 259 255 256 269 258 250 255 255 250 244 235 242 269 287 299 278 250
63 55 49 48 44 39 45 57 70 64 54 42 25 336 301 280 252 229 214 206 191 162 287 290 276 267 261 260 262 264 257 250 252 254 253 252 255 253 256 269 275 280 286
66 58 50 45 48 50 45 48 63 65 54 42 26 355 337 322 285 242 215 195 173 149 137 295 285 275 268 267 268 263 263 255 252 251 254 259 264 272 274 273 279 287 281
63 55 47 39 36 43 48 60 72 76 65 56 40 14 7 12 18 13 86 125 113 117 132 288 295 292 286 282 277 272 265 261 260 260 260 261 263 265 263 270 284 289 286
62 52 43 35 31 34 42 52 78 81 68 54 40 35 34 41 48 60 74 80 85 99 97 9 314 304 298 294 289 280 280 275 268 268 261 257 261 258 261 266 270 271 281
68 59 50 40 36 35 43 54 66 70 61 51 36 38 40 47 50 56 61 64 72 73 76 19 317 301 296 292 289 283 283 287 282 282 281 270 257 255 252 250 251 250 259
57 49 47 44 44 46 47 50 58 60 56 49 46 44 51 61 67 67 67 68 64 61 58 21 310 294 290 291 287 288 292 285 291 293 291 287 283 269 263 256 249 243 238
46 39 34 35 38 41 46 50 48 46 43 46 56 61 64 70 77 76 70 69 67 57 44 7 312 293 293 291 288 287 292 293 296 300 298 294 290 278 270 263 255 247 236
24 31 31 28 29 30 33 47 52 47 35 34 53 71 80 83 77 72 67 64 63 57 44 25 3 347 329 311 298 291 290 298 312 323 318 315 301 287 276 267 264 256 245
349 10 26 28 28 25 18 22 35 44 49 45 51 73 81 85 86 79 73 65 56 52 43 34 25 11 359 352 333 307 311 354 16 12 359 352 342 336 317 290 278 265 251
297 344 5 16 16 22 22 27 31 26 34 77 80 70 82 96 99 93 86 74 56 53 44 38 38 30 29 20 5 20 56 61 55 44 29 23 19 24 8 357 343 310 260
253 265 334 6 13 5 7 44 77 65 60 65 70 67 79 104 114 111 105 95 72 55 45 42 45 45 42 25 13 3 69 62 55 50 42 43 27 32 45 41 37 24 3
256 286 346 358 349 340 325 134 109 91 83 83 77 65 62 64 68 85 89 80 69 62 51 50 57 60 55 37 29 12 46 60 51 44 33 34 36 357 16 74 90 59 42
234 277 346 352 337 311 229 161 147 137 124 107 85 67 63 63 52 48 47 42 40 44 47 54 66 73 69 54 30 351 63 63 58 54 47 43 36 19 353 27 50 52 43
315 336 345 344 332 287 208 168 161 154 141 118 92 70 61 69 66 47 13 1 9 29 32 47 64 75 83 73 3 332 78 76 70 61 48 36 39 12 348 22 61 66 76
231 296 332 350 358 33 189 171 166 160 139 105 85 58 41 39 2 265 255 274 354 9 354 31 43 58 70 78 2 326 40 74 84 87 82 59 28 9 360 12 37 51 49
206 240 281 23 45 71 152 163 158 128 98 93 86 66 41 11 352 322 262 179 99 23 349 10 21 47 53 79 46 356 358 33 48 61 59 51 20 8 1 353 23 8 327
188 209 205 112 105 107 130 136 115 91 91 90 87 77 54 28 35 33 23 39 63 58 360 -0 349 15 52 47 46 25 12 349 25 34 44 52 11 351 354 7 6 318 299
160 189 171 138 128 131 144 134 110 102 106 102 97 92 78 55 46 46 40 48 52 45 27 7 353 359 16 71 82 61 47 14 355 15 33 7 319 287 262 16 325 308 314
134 154 150 144 130 122 124 131 137 136 139 137 134 126 110 89 69 60 51 49 45 43 38 23 5 4 16 20 18 23 46 41 1 348 328 239 252 258 288 284 285 330 8
114 121 127 129 123 132 140 146 149 157 165 167 163 155 143 131 117 102 79 70 74 50 9 0 353 352 14 30 3 349 7 14 20 336 316 311 312 300 288 283 305 311 306
132 129 126 127 128 137 143 147 159 174 191 181 159 156 158 151 151 146 138 99 72 123 159 329 330 1 30 2 351 346 336 318 298 278 259 283 320 326 324 313 300 285 285